Location: Deerlick Astronomy Village
(33.5614°N, 82.7631°W)
Time: 18:47:46
(UTC-05:00)

LightSail 2 - Visible Passes

Search period start: 25 January 2020 00:00
Search period end: 04 February 2020 00:00
Orbit: 704 x 719 km, 24.0° (Epoch: 25 January)

Date Brightness Start Highest point End Pass type
(mag) Time Alt. Az. Time Alt. Az. Time Alt. Az.
25 Jan 6.9 18:53:43 10° WSW 18:57:54 25° S 19:02:05 10° SE visible
25 Jan 7.7 20:40:09 10° SW 20:41:56 14° SSW 20:41:56 14° SSW visible
26 Jan 7.4 19:41:09 10° WSW 19:44:29 17° SSW 19:47:23 12° SSE visible
27 Jan 7.3 18:42:25 10° WSW 18:46:11 21° SSW 18:49:58 10° SE visible
28 Jan 7.7 19:30:42 10° SW 19:32:42 12° SSW 19:34:43 10° S visible
29 Jan 7.6 18:31:25 10° SW 18:34:23 15° SSW 18:37:24 10° SSE visible
